timestamp,wind_dir_avg,wind_spd_avg,wind_spd_max_dir,wind_spd_gust,battery_voltage,lat,long
2023-05-04 00:04:00+00:00,41.0,9.76,40.0,10.83,12.65,47.59359,-54.27349
2023-05-04 00:14:00+00:00,39.0,9.98,42.0,10.82,12.33,47.59359,-54.27349
2023-05-04 00:24:00+00:00,38.0,10.32,36.0,11.37,12.33,47.59359,-54.27349
2023-05-04 00:34:00+00:00,37.0,10.19,35.0,11.21,12.33,47.59359,-54.27349
2023-05-04 00:44:00+00:00,36.0,9.78,36.0,10.94,12.33,47.59359,-54.27349
2023-05-04 00:54:00+00:00,36.0,9.0,38.0,9.75,12.33,47.59359,-54.27349
2023-05-04 01:04:00+00:00,36.0,9.46,38.0,10.12,12.33,47.59359,-54.27349
2023-05-04 01:14:00+00:00,37.0,8.99,37.0,9.83,12.33,47.59359,-54.27349
2023-05-04 01:24:00+00:00,40.0,9.07,40.0,9.97,12.33,47.59359,-54.27349
2023-05-04 01:34:00+00:00,39.0,9.37,36.0,10.25,12.33,47.59359,-54.27349
2023-05-04 01:44:00+00:00,37.0,9.07,36.0,9.75,12.33,47.59359,-54.27349
2023-05-04 01:54:00+00:00,39.0,8.89,38.0,9.59,12.33,47.59359,-54.27349
2023-05-04 02:04:00+00:00,38.0,8.23,42.0,8.94,12.33,47.59359,-54.27349
2023-05-04 02:14:00+00:00,39.0,7.69,36.0,8.7,12.33,47.59359,-54.27349
2023-05-04 02:24:00+00:00,34.0,8.08,35.0,9.13,12.33,47.59359,-54.27349
2023-05-04 02:34:00+00:00,34.0,8.27,36.0,9.23,12.33,47.59359,-54.27349
2023-05-04 02:44:00+00:00,37.0,9.0,37.0,10.1,12.33,47.59359,-54.27349
2023-05-04 02:54:00+00:00,36.0,9.21,36.0,10.02,12.33,47.59359,-54.27349
2023-05-04 03:04:00+00:00,35.0,9.27,35.0,10.12,12.33,47.59359,-54.27349
2023-05-04 03:14:00+00:00,37.0,8.48,40.0,9.56,12.25,47.59359,-54.27349
2023-05-04 03:24:00+00:00,35.0,7.97,36.0,8.73,12.25,47.59359,-54.27349
2023-05-04 03:34:00+00:00,35.0,8.32,38.0,9.09,12.25,47.59359,-54.27349
2023-05-04 03:44:00+00:00,39.0,7.71,38.0,8.53,12.25,47.59359,-54.27349
2023-05-04 03:54:00+00:00,39.0,7.93,36.0,8.85,12.25,47.59359,-54.27349
2023-05-04 04:04:00+00:00,37.0,8.03,40.0,9.13,12.25,47.59359,-54.27349
2023-05-04 04:14:00+00:00,35.0,8.86,36.0,9.65,12.25,47.59359,-54.27349
2023-05-04 04:24:00+00:00,36.0,9.4,35.0,10.48,12.25,47.59359,-54.27349
2023-05-04 04:34:00+00:00,35.0,9.01,36.0,10.36,12.25,47.59359,-54.27349
2023-05-04 04:44:00+00:00,36.0,9.39,36.0,10.4,12.25,47.59359,-54.27349
2023-05-04 04:54:00+00:00,35.0,9.1,40.0,10.06,12.25,47.59359,-54.27349
2023-05-04 05:04:00+00:00,36.0,9.09,36.0,10.21,12.25,47.59359,-54.27349
2023-05-04 05:14:00+00:00,39.0,8.95,38.0,10.0,12.25,47.59359,-54.27349
2023-05-04 05:24:00+00:00,40.0,9.59,40.0,10.53,12.25,47.59359,-54.27349
2023-05-04 05:34:00+00:00,36.0,9.88,36.0,11.53,12.25,47.59359,-54.27349
2023-05-04 05:44:00+00:00,37.0,9.69,38.0,10.91,12.25,47.59359,-54.27349
2023-05-04 05:54:00+00:00,35.0,10.25,36.0,11.61,12.25,47.59359,-54.27349
2023-05-04 06:04:00+00:00,42.0,8.89,48.0,9.76,12.25,47.59359,-54.27349
2023-05-04 06:14:00+00:00,41.0,9.4,45.0,10.56,12.17,47.59359,-54.27349
2023-05-04 06:24:00+00:00,41.0,8.96,43.0,10.38,12.17,47.59359,-54.27349
2023-05-04 06:34:00+00:00,38.0,9.93,38.0,11.03,12.17,47.59359,-54.27349
2023-05-04 06:44:00+00:00,34.0,10.12,36.0,11.2,12.17,47.59359,-54.27349
2023-05-04 06:54:00+00:00,34.0,9.76,36.0,10.76,12.17,47.59359,-54.27349
2023-05-04 07:04:00+00:00,34.0,9.74,34.0,10.73,12.17,47.59359,-54.27349
2023-05-04 07:14:01+00:00,36.0,10.28,38.0,11.25,12.17,47.59359,-54.27349
2023-05-04 07:24:01+00:00,35.0,9.92,35.0,11.2,12.17,47.59359,-54.27349
2023-05-04 07:34:01+00:00,36.0,10.4,36.0,11.92,12.17,47.59359,-54.27349
2023-05-04 07:44:01+00:00,36.0,9.95,36.0,11.42,12.17,47.59359,-54.27349
2023-05-04 07:54:01+00:00,36.0,10.36,37.0,11.9,12.17,47.59359,-54.27349
2023-05-04 08:04:01+00:00,38.0,9.97,39.0,11.05,12.17,47.59359,-54.27349
2023-05-04 08:14:01+00:00,38.0,9.96,36.0,11.69,12.09,47.59359,-54.27349
2023-05-04 08:24:01+00:00,36.0,9.53,38.0,10.55,12.09,47.59359,-54.27349
2023-05-04 08:34:01+00:00,37.0,10.12,38.0,11.2,12.09,47.59359,-54.27349
2023-05-04 08:44:01+00:00,37.0,9.78,40.0,10.91,12.09,47.59359,-54.27349
2023-05-04 08:54:01+00:00,36.0,8.99,37.0,9.91,12.09,47.59359,-54.27349
2023-05-04 09:04:01+00:00,37.0,8.54,38.0,9.76,12.09,47.59359,-54.27349
2023-05-04 09:14:01+00:00,36.0,9.36,33.0,10.24,12.09,47.59359,-54.27349
2023-05-04 09:24:01+00:00,37.0,8.93,39.0,10.22,12.09,47.59359,-54.27349
2023-05-04 09:34:01+00:00,37.0,9.13,37.0,10.01,12.09,47.59359,-54.27349
2023-05-04 09:44:01+00:00,36.0,9.39,38.0,10.17,12.09,47.59359,-54.27349
2023-05-04 09:54:01+00:00,36.0,9.29,40.0,9.95,12.09,47.59359,-54.27349
2023-05-04 10:04:01+00:00,37.0,8.63,41.0,9.63,12.09,47.59359,-54.27349
2023-05-04 10:14:00+00:00,39.0,8.85,41.0,9.82,12.41,47.59359,-54.27349
2023-05-04 10:24:00+00:00,38.0,9.02,43.0,9.95,12.41,47.59359,-54.27349
2023-05-04 10:34:00+00:00,38.0,8.32,41.0,9.36,12.41,47.59359,-54.27349
2023-05-04 10:44:00+00:00,43.0,7.81,42.0,8.84,12.41,47.59359,-54.27349
2023-05-04 10:54:00+00:00,38.0,8.86,39.0,10.15,12.41,47.59359,-54.27349
2023-05-04 11:04:00+00:00,36.0,8.56,36.0,9.4,12.41,47.59359,-54.27349
2023-05-04 11:14:00+00:00,39.0,8.27,39.0,9.56,12.73,47.59359,-54.27349
2023-05-04 11:24:00+00:00,41.0,9.02,42.0,9.66,12.73,47.59359,-54.27349
2023-05-04 11:34:00+00:00,40.0,9.3,38.0,10.16,12.73,47.59359,-54.27349
2023-05-04 11:44:00+00:00,39.0,9.17,42.0,10.1,12.73,47.59359,-54.27349
2023-05-04 11:54:00+00:00,40.0,9.63,40.0,10.82,12.73,47.59359,-54.27349
2023-05-04 12:04:00+00:00,41.0,8.98,42.0,9.93,12.73,47.59359,-54.27349
2023-05-04 12:14:01+00:00,43.0,8.89,41.0,9.87,13.21,47.59359,-54.27349
2023-05-04 12:24:01+00:00,44.0,7.36,45.0,8.48,13.21,47.59359,-54.27349
2023-05-04 12:34:01+00:00,43.0,7.83,44.0,8.82,13.21,47.59359,-54.27349
2023-05-04 12:44:01+00:00,47.0,7.36,46.0,8.39,13.21,47.59359,-54.27349
2023-05-04 12:54:01+00:00,46.0,10.21,50.0,11.22,13.21,47.59359,-54.27349
2023-05-04 13:04:01+00:00,47.0,10.69,48.0,12.07,13.21,47.59359,-54.27349
2023-05-04 13:14:00+00:00,51.0,10.9,49.0,12.55,13.44,47.59359,-54.27349
2023-05-04 13:24:00+00:00,52.0,10.17,52.0,11.91,13.44,47.59359,-54.27349
2023-05-04 13:34:00+00:00,53.0,9.46,49.0,10.52,13.44,47.59359,-54.27349
2023-05-04 13:44:00+00:00,53.0,10.59,51.0,12.45,13.44,47.59359,-54.27349
2023-05-04 13:54:00+00:00,55.0,10.67,56.0,12.44,13.44,47.59359,-54.27349
2023-05-04 14:04:00+00:00,58.0,11.69,62.0,12.94,13.44,47.59359,-54.27349
2023-05-04 14:14:00+00:00,58.0,11.26,62.0,13.2,13.68,47.59359,-54.27349
2023-05-04 14:24:00+00:00,54.0,10.18,55.0,11.93,13.68,47.59359,-54.27349
2023-05-04 14:34:00+00:00,51.0,8.89,51.0,10.23,13.68,47.59359,-54.27349
2023-05-04 14:44:00+00:00,46.0,8.7,46.0,9.69,13.68,47.59359,-54.27349
2023-05-04 14:54:00+00:00,52.0,8.45,49.0,9.21,13.68,47.59359,-54.27349
2023-05-04 15:04:00+00:00,50.0,10.08,53.0,11.19,13.68,47.59359,-54.27349
2023-05-04 15:14:00+00:00,49.0,10.54,51.0,12.43,13.68,47.59359,-54.27349
2023-05-04 15:24:00+00:00,48.0,10.28,49.0,12.02,13.68,47.59359,-54.27349
2023-05-04 15:34:00+00:00,48.0,9.69,44.0,11.35,13.68,47.59359,-54.27349
2023-05-04 15:44:00+00:00,51.0,11.11,54.0,13.31,13.68,47.59359,-54.27349
2023-05-04 15:54:00+00:00,49.0,11.27,49.0,13.27,13.68,47.59359,-54.27349
2023-05-04 16:04:00+00:00,50.0,9.71,52.0,11.26,13.68,47.59359,-54.27349
2023-05-04 16:14:00+00:00,46.0,10.01,45.0,10.95,13.6,47.59359,-54.27349
2023-05-04 16:24:00+00:00,51.0,8.49,48.0,9.47,13.6,47.59359,-54.27349
2023-05-04 16:34:00+00:00,48.0,9.05,46.0,9.94,13.6,47.59359,-54.27349
2023-05-04 16:44:00+00:00,46.0,9.79,43.0,10.97,13.6,47.59359,-54.27349
2023-05-04 16:54:00+00:00,36.0,10.02,41.0,11.29,13.6,47.59359,-54.27349
2023-05-04 17:04:00+00:00,41.0,8.94,41.0,10.07,13.6,47.59359,-54.27349
2023-05-04 17:14:00+00:00,40.0,9.63,38.0,10.84,13.68,47.59359,-54.27349
2023-05-04 17:24:00+00:00,39.0,10.08,43.0,12.16,13.68,47.59359,-54.27349
2023-05-04 17:34:00+00:00,40.0,10.5,40.0,11.74,13.68,47.59359,-54.27349
2023-05-04 17:44:00+00:00,39.0,11.42,36.0,13.39,13.68,47.59359,-54.27349
2023-05-04 17:54:00+00:00,38.0,10.67,36.0,11.9,13.68,47.59359,-54.27349
2023-05-04 18:04:00+00:00,36.0,11.89,36.0,13.23,13.68,47.59359,-54.27349
2023-05-04 18:14:00+00:00,35.0,10.91,38.0,12.2,13.68,47.59359,-54.27349
2023-05-04 18:24:00+00:00,36.0,10.79,40.0,12.01,13.68,47.59359,-54.27349
2023-05-04 18:34:00+00:00,38.0,10.76,39.0,12.01,13.68,47.59359,-54.27349
2023-05-04 18:44:00+00:00,42.0,9.43,42.0,10.39,13.68,47.59359,-54.27349
2023-05-04 18:54:00+00:00,51.0,8.03,47.0,9.25,13.68,47.59359,-54.27349
2023-05-04 19:04:00+00:00,48.0,9.58,46.0,10.32,13.68,47.59359,-54.27349
2023-05-04 19:14:00+00:00,51.0,8.85,49.0,9.79,13.68,47.59359,-54.27349
2023-05-04 19:24:00+00:00,46.0,10.03,50.0,11.5,13.68,47.59359,-54.27349
2023-05-04 19:34:00+00:00,45.0,10.27,46.0,11.48,13.68,47.59359,-54.27349
2023-05-04 19:44:00+00:00,46.0,10.68,53.0,12.69,13.68,47.59359,-54.27349
2023-05-04 19:54:00+00:00,41.0,11.96,42.0,13.5,13.68,47.59359,-54.27349
2023-05-04 20:04:00+00:00,41.0,11.81,35.0,14.21,13.68,47.59359,-54.27349
2023-05-04 20:14:00+00:00,39.0,12.09,37.0,13.32,13.68,47.59359,-54.27349
2023-05-04 20:24:00+00:00,39.0,12.58,51.0,14.81,13.68,47.59359,-54.27349
2023-05-04 20:34:00+00:00,39.0,12.65,36.0,14.48,13.68,47.59359,-54.27349
2023-05-04 20:44:00+00:00,40.0,10.03,35.0,11.32,13.68,47.59359,-54.27349
2023-05-04 20:54:00+00:00,42.0,11.49,40.0,13.15,13.68,47.59359,-54.27349
2023-05-04 21:04:00+00:00,39.0,11.99,36.0,13.93,13.68,47.59359,-54.27349
2023-05-04 21:14:01+00:00,37.0,10.75,36.0,11.77,13.44,47.59359,-54.27349
2023-05-04 21:24:01+00:00,39.0,9.79,35.0,11.5,13.44,47.59359,-54.27349
2023-05-04 21:34:01+00:00,37.0,11.79,47.0,14.28,13.44,47.59359,-54.27349
2023-05-04 21:44:01+00:00,36.0,11.89,35.0,13.23,13.44,47.59359,-54.27349
2023-05-04 21:54:01+00:00,39.0,11.39,36.0,12.93,13.44,47.59359,-54.27349
2023-05-04 22:04:01+00:00,36.0,11.68,35.0,13.44,13.44,47.59359,-54.27349
2023-05-04 22:14:00+00:00,35.0,12.22,36.0,14.04,13.13,47.59359,-54.27349
2023-05-04 22:24:00+00:00,34.0,12.26,36.0,13.69,13.13,47.59359,-54.27349
2023-05-04 22:34:00+00:00,34.0,12.68,36.0,14.19,13.13,47.59359,-54.27349
2023-05-04 22:44:00+00:00,34.0,12.01,34.0,14.91,13.13,47.59359,-54.27349
2023-05-04 22:54:00+00:00,34.0,12.92,36.0,15.1,13.13,47.59359,-54.27349
2023-05-04 23:04:00+00:00,33.0,12.44,34.0,14.04,13.13,47.59359,-54.27349
2023-05-04 23:14:00+00:00,34.0,12.36,36.0,13.55,12.57,47.59359,-54.27349
2023-05-04 23:24:00+00:00,34.0,11.21,36.0,12.51,12.57,47.59359,-54.27349
2023-05-04 23:34:00+00:00,34.0,11.74,35.0,13.44,12.57,47.59359,-54.27349
2023-05-04 23:44:00+00:00,34.0,12.57,35.0,13.76,12.57,47.59359,-54.27349
2023-05-04 23:54:00+00:00,34.0,12.61,31.0,14.59,12.57,47.59359,-54.27349
